Dades meteomassalio
Diari Summary for Agost 5, 2017 Units:  English    Metric   Both
« Previous Day
Next Day »
Diari Semanal Mensual Anual Personalitzat
  Maxima: Minima: Mijana:
Temperatura: TemperatureC °F 22.1 °F 29.2 °F
Rosada: DewpointC °F 13.6 °F 16.6 °F
Humitat: Humidity % 31 % 48 %
Velocitat del vent: WindSpeedKMH mph 0.0 mph 6 mph
Racha vent: WindSpeedGustKMH mph - -
Vent:- - SW
Pressio: PressurehPa in 1010.4 in -
Pluja: 0.0 in    
Historical Graphs
 
 
Tabular Data for Agost 5, 2017
Time Temperature Dew Point Pressure Wind Wind Speed Wind Gust Humidity Rainfall Rate (Hourly) solar Conditions
TemperatureC °F DewpointC °F PressurehPa in Calm     Humidity % HourlyPrecipMM in SolarRadiationWatts/m^2 W/m2 Conditions
00:00 28.2 °F 13.7 °F 1013.1 in Calm     41 % 0.0 in 0.0 W/m2 CLR
00:05 28.1 °F 13.6 °F 1013.1 in Calm     41 % 0.0 in 0.0 W/m2 CLR
00:10 28.2 °F 13.7 °F 1013.1 in Calm     41 % 0.0 in 0.0 W/m2 CLR
00:15 28.2 °F 13.7 °F 1013.1 in Calm     41 % 0.0 in 0.0 W/m2 CLR
00:20 28.2 °F 13.7 °F 1013.1 in Calm     41 % 0.0 in 0.0 W/m2 CLR
00:25 28.1 °F 14.0 °F 1013.1 in Calm     42 % 0.0 in 0.0 W/m2 CLR
00:30 27.7 °F 13.6 °F 1013.1 in Calm     42 % 0.0 in 0.0 W/m2 CLR
00:35 27.3 °F 13.6 °F 1013.1 in Calm     43 % 0.0 in 0.0 W/m2 CLR
00:40 27.1 °F 13.8 °F 1013.1 in Calm     44 % 0.0 in 0.0 W/m2 CLR
00:45 27.1 °F 13.8 °F 1013.1 in Calm     44 % 0.0 in 0.0 W/m2 CLR
00:50 27.1 °F 13.8 °F 1013.1 in Calm     44 % 0.0 in 0.0 W/m2 CLR
00:55 27.0 °F 13.7 °F 1013.1 in Calm     44 % 0.0 in 0.0 W/m2 CLR
01:00 26.9 °F 13.7 °F 1013.1 in Calm     44 % 0.0 in 0.0 W/m2 CLR
01:05 26.8 °F 13.9 °F 1013.1 in Calm     45 % 0.0 in 0.0 W/m2 CLR
01:10 26.7 °F 13.8 °F 1013.1 in Calm     45 % 0.0 in 0.0 W/m2 CLR
01:15 26.6 °F 14.0 °F 1013.1 in Calm     46 % 0.0 in 0.0 W/m2 CLR
01:20 26.2 °F 14.0 °F 1013.1 in Calm     47 % 0.0 in 0.0 W/m2 CLR
01:21 26.2 °F 13.9 °F 1013.1 in Calm     47 % 0.0 in 0.0 W/m2 CLR
01:26 25.9 °F 13.7 °F 1013.1 in Calm     47 % 0.0 in 0.0 W/m2 CLR
01:31 25.8 °F 14.0 °F 1013.1 in Calm     48 % 0.0 in 0.0 W/m2 CLR
01:36 25.9 °F 14.1 °F 1013.1 in Calm     48 % 0.0 in 0.0 W/m2 CLR
01:41 25.8 °F 14.0 °F 1013.1 in Calm     48 % 0.0 in 0.0 W/m2 CLR
01:46 25.8 °F 14.0 °F 1013.1 in Calm     48 % 0.0 in 0.0 W/m2 CLR
01:51 25.8 °F 13.9 °F 1013.1 in Calm     48 % 0.0 in 0.0 W/m2 CLR
01:56 25.6 °F 14.1 °F 1013.1 in Calm     49 % 0.0 in 0.0 W/m2 CLR
02:01 25.5 °F 14.0 °F 1013.1 in Calm     49 % 0.0 in 0.0 W/m2 CLR
02:06 25.4 °F 13.9 °F 1013.1 in Calm     49 % 0.0 in 0.0 W/m2 CLR
02:11 25.4 °F 13.9 °F 1013.1 in Calm     49 % 0.0 in 0.0 W/m2 CLR
02:16 25.4 °F 13.9 °F 1013.1 in Calm     49 % 0.0 in 0.0 W/m2 CLR
02:21 25.3 °F 14.2 °F 1013.1 in Calm     50 % 0.0 in 0.0 W/m2 CLR
02:26 25.3 °F 14.2 °F 1013.1 in Calm     50 % 0.0 in 0.0 W/m2 CLR
02:31 25.3 °F 14.2 °F 1013.1 in Calm     50 % 0.0 in 0.0 W/m2 CLR
02:36 25.4 °F 14.3 °F 1013.1 in Calm     50 % 0.0 in 0.0 W/m2 CLR
02:40 25.4 °F 14.3 °F 1013.1 in Calm     50 % 0.0 in 0.0 W/m2 CLR
02:45 25.4 °F 14.3 °F 1013.1 in Calm     50 % 0.0 in 0.0 W/m2 CLR
02:50 25.3 °F 14.2 °F 1013.1 in Calm     50 % 0.0 in 0.0 W/m2 CLR
02:55 25.2 °F 14.4 °F 1013.1 in Calm     51 % 0.0 in 0.0 W/m2 CLR
03:00 25.1 °F 14.6 °F 1013.1 in Calm     52 % 0.0 in 0.0 W/m2 CLR
03:05 24.9 °F 14.3 °F 1013.1 in Calm     52 % 0.0 in 0.0 W/m2 CLR
03:10 24.8 °F 14.3 °F 1013.1 in Calm     52 % 0.0 in 0.0 W/m2 CLR
03:15 24.9 °F 14.7 °F 1013.1 in Calm     53 % 0.0 in 0.0 W/m2 CLR
03:20 24.9 °F 14.9 °F 1013.1 in Calm     54 % 0.0 in 0.0 W/m2 CLR
03:25 24.8 °F 15.2 °F 1013.4 in Calm     55 % 0.0 in 0.0 W/m2 CLR
03:26 24.8 °F 15.1 °F 1013.4 in Calm     55 % 0.0 in 0.0 W/m2 CLR
03:31 24.7 °F 14.7 °F 1013.4 in Calm     54 % 0.0 in 0.0 W/m2 CLR
03:36 24.5 °F 14.6 °F 1013.1 in Calm     54 % 0.0 in 0.0 W/m2 CLR
03:41 24.4 °F 14.8 °F 1013.4 in Calm     55 % 0.0 in 0.0 W/m2 CLR
03:46 24.4 °F 14.8 °F 1013.4 in Calm     55 % 0.0 in 0.0 W/m2 CLR
03:51 24.4 °F 14.8 °F 1013.4 in Calm     55 % 0.0 in 0.0 W/m2 CLR
03:56 24.3 °F 14.7 °F 1013.1 in Calm     55 % 0.0 in 0.0 W/m2 CLR
04:01 24.2 °F 14.6 °F 1013.1 in Calm     55 % 0.0 in 0.0 W/m2 CLR
04:06 24.2 °F 14.6 °F 1013.4 in Calm     55 % 0.0 in 0.0 W/m2 CLR
04:11 24.2 °F 14.6 °F 1013.4 in Calm     55 % 0.0 in 0.0 W/m2 CLR
04:16 24.2 °F 14.9 °F 1013.4 in Calm     56 % 0.0 in 0.0 W/m2 CLR
04:21 24.2 °F 14.8 °F 1013.4 in Calm     56 % 0.0 in 0.0 W/m2 CLR
04:26 24.1 °F 14.7 °F 1013.4 in Calm     56 % 0.0 in 0.0 W/m2 CLR
04:31 23.9 °F 14.9 °F 1013.4 in Calm     57 % 0.0 in 0.0 W/m2 CLR
04:36 23.9 °F 14.9 °F 1013.4 in Calm     57 % 0.0 in 0.0 W/m2 CLR
04:41 23.9 °F 14.9 °F 1013.4 in Calm     57 % 0.0 in 0.0 W/m2 CLR
04:46 24.0 °F 14.9 °F 1013.4 in Calm     57 % 0.0 in 0.0 W/m2 CLR
04:50 24.1 °F 15.0 °F 1013.4 in Calm     57 % 0.0 in 0.0 W/m2 CLR
04:55 24.1 °F 15.0 °F 1013.4 in Calm     57 % 0.0 in 0.0 W/m2 CLR
05:00 24.0 °F 15.2 °F 1013.1 in Calm     58 % 0.0 in 0.0 W/m2 CLR
05:05 24.0 °F 15.2 °F 1013.4 in Calm     58 % 0.0 in 0.0 W/m2 CLR
05:10 24.0 °F 15.2 °F 1013.4 in Calm     58 % 0.0 in 0.0 W/m2 CLR
05:16 23.9 °F 15.1 °F 1013.1 in Calm     58 % 0.0 in 0.0 W/m2 CLR
05:19 23.8 °F 15.1 °F 1013.1 in Calm     58 % 0.0 in 0.0 W/m2 CLR
05:21 23.8 °F 15.0 °F 1013.1 in Calm     58 % 0.0 in 0.0 W/m2 CLR
05:25 23.7 °F 15.2 °F 1013.4 in Calm     59 % 0.0 in 0.0 W/m2 CLR
05:26 23.7 °F 15.2 °F 1013.4 in Calm     59 % 0.0 in 0.0 W/m2 CLR
05:27 23.6 °F 15.1 °F 1013.1 in Calm     59 % 0.0 in 0.0 W/m2 CLR
05:32 23.5 °F 15.0 °F 1013.1 in Calm     59 % 0.0 in 0.0 W/m2 CLR
05:37 23.4 °F 15.2 °F 1013.1 in Calm     60 % 0.0 in 0.0 W/m2 CLR
05:42 23.3 °F 15.1 °F 1013.1 in Calm     60 % 0.0 in 0.0 W/m2 CLR
05:47 23.2 °F 15.2 °F 1013.4 in Calm     61 % 0.0 in 0.0 W/m2 CLR
05:52 23.1 °F 15.1 °F 1013.4 in Calm     61 % 0.0 in 0.0 W/m2 CLR
05:57 23.0 °F 15.1 °F 1013.1 in Calm     61 % 0.0 in 0.0 W/m2 CLR
06:02 23.0 °F 15.3 °F 1013.4 in Calm     62 % 0.0 in 0.0 W/m2 CLR
06:07 22.9 °F 15.3 °F 1013.4 in Calm     62 % 0.0 in 0.0 W/m2 CLR
06:12 22.9 °F 15.3 °F 1013.4 in Calm     62 % 0.0 in 0.0 W/m2 CLR
06:17 22.9 °F 15.2 °F 1013.4 in Calm     62 % 0.0 in 0.0 W/m2 CLR
06:22 22.8 °F 15.1 °F 1013.4 in Calm     62 % 0.0 in 0.0 W/m2 CLR
06:27 22.7 °F 15.3 °F 1013.4 in Calm     63 % 0.0 in 0.0 W/m2 CLR
06:32 22.6 °F 15.2 °F 1013.4 in Calm     63 % 0.0 in 0.0 W/m2 CLR
06:37 22.6 °F 15.4 °F 1013.4 in Calm     64 % 0.0 in 0.0 W/m2 CLR
06:42 22.4 °F 15.3 °F 1013.4 in Calm     64 % 0.0 in 0.0 W/m2 CLR
06:47 22.4 °F 15.5 °F 1013.4 in Calm     65 % 0.0 in 0.0 W/m2 CLR
06:52 22.4 °F 15.5 °F 1013.4 in Calm     65 % 0.0 in 0.0 W/m2 OVC
06:57 22.4 °F 15.5 °F 1013.4 in Calm     65 % 0.0 in 0.0 W/m2 OVC
07:02 22.3 °F 15.4 °F 1013.4 in Calm     65 % 0.0 in 5.0 W/m2 OVC
07:07 22.2 °F 15.3 °F 1013.8 in Calm     65 % 0.0 in 7.0 W/m2 BKN
07:12 22.1 °F 15.4 °F 1013.8 in Calm     66 % 0.0 in 11.0 W/m2 BKN
07:17 22.1 °F 15.4 °F 1013.8 in Calm     66 % 0.0 in 14.0 W/m2 BKN
07:22 22.2 °F 15.5 °F 1013.8 in Calm     66 % 0.0 in 23.0 W/m2 BKN
07:27 22.2 °F 15.8 °F 1013.8 in Calm     67 % 0.0 in 26.0 W/m2 BKN
07:32 22.3 °F 15.8 °F 1013.4 in Calm     67 % 0.0 in 33.0 W/m2 BKN
07:37 22.4 °F 15.7 °F 1013.4 in Calm     66 % 0.0 in 39.0 W/m2 BKN
07:42 22.5 °F 15.8 °F 1013.4 in Calm     66 % 0.0 in 42.0 W/m2 BKN
07:47 22.7 °F 16.0 °F 1013.4 in Calm     66 % 0.0 in 51.0 W/m2 SCT
07:52 22.8 °F 16.1 °F 1013.4 in Calm     66 % 0.0 in 49.0 W/m2 SCT
07:57 22.7 °F 16.1 °F 1013.4 in Calm     66 % 0.0 in 39.0 W/m2 BKN
08:02 22.7 °F 16.1 °F 1013.4 in Calm     66 % 0.0 in 37.0 W/m2 BKN
08:07 22.7 °F 16.1 °F 1013.4 in Calm     66 % 0.0 in 39.0 W/m2 BKN
08:12 22.9 °F 16.2 °F 1013.8 in Calm     66 % 0.0 in 88.0 W/m2 SCT
08:17 23.1 °F 16.2 °F 1013.8 in Calm     65 % 0.0 in 74.0 W/m2 SCT
08:22 23.3 °F 16.3 °F 1013.8 in Calm     65 % 0.0 in 114.0 W/m2 FEW
08:27 23.4 °F 16.2 °F 1013.8 in Calm     64 % 0.0 in 127.0 W/m2 CLR
08:32 23.6 °F 16.4 °F 1013.8 in Calm     64 % 0.0 in 167.0 W/m2 CLR
08:37 23.9 °F 16.7 °F 1013.8 in Calm     64 % 0.0 in 197.0 W/m2 CLR
08:42 24.2 °F 16.7 °F 1013.8 in Calm     63 % 0.0 in 213.0 W/m2 CLR
08:47 24.6 °F 16.8 °F 1013.8 in Calm     62 % 0.0 in 223.0 W/m2 CLR
08:52 25.0 °F 16.9 °F 1014.1 in Calm     61 % 0.0 in 239.0 W/m2 CLR
08:57 25.3 °F 16.9 °F 1014.1 in Calm     60 % 0.0 in 255.0 W/m2 CLR
09:02 25.7 °F 17.3 °F 1014.1 in Calm     60 % 0.0 in 274.0 W/m2 CLR
09:07 26.1 °F 17.7 °F 1014.1 in Calm     60 % 0.0 in 290.0 W/m2 CLR
09:12 26.4 °F 17.7 °F 1014.1 in Calm     59 % 0.0 in 304.0 W/m2 CLR
09:17 26.8 °F 17.8 °F 1014.1 in Calm     58 % 0.0 in 320.0 W/m2 CLR
09:22 27.3 °F 18.0 °F 1014.1 in Calm     57 % 0.0 in 334.0 W/m2 CLR
09:27 27.7 °F 18.1 °F 1014.1 in WNW 11.1 mph 11.1 mph 56 % 0.0 in 350.0 W/m2 CLR
09:32 27.9 °F 18.3 °F 1014.1 in NNW 14.8 mph 14.8 mph 56 % 0.0 in 366.0 W/m2 CLR
09:37 28.0 °F 18.1 °F 1014.1 in NNW 14.8 mph 14.8 mph 55 % 0.0 in 380.0 W/m2 CLR
09:42 27.9 °F 18.1 °F 1014.1 in NW 11.1 mph 11.1 mph 55 % 0.0 in 100.0 W/m2 CLR
09:47 28.0 °F 18.4 °F 1014.1 in NNW 11.1 mph   56 % 0.0 in 188.0 W/m2 CLR
09:52 28.1 °F 18.2 °F 1014.1 in NNW 18.5 mph 18.5 mph 55 % 0.0 in 429.0 W/m2 CLR
09:57 28.1 °F 18.2 °F 1014.1 in North 7.4 mph 7.4 mph 55 % 0.0 in 441.0 W/m2 CLR
10:02 28.1 °F 18.2 °F 1014.1 in NW 11.1 mph 11.1 mph 55 % 0.0 in 457.0 W/m2 CLR
10:07 28.1 °F 18.2 °F 1014.1 in Calm     55 % 0.0 in 471.0 W/m2 CLR
10:12 28.3 °F 18.4 °F 1014.1 in North 5.6 mph 5.6 mph 55 % 0.0 in 485.0 W/m2 CLR
10:17 28.6 °F 18.3 °F 1014.1 in North 17.7 mph 17.7 mph 54 % 0.0 in 506.0 W/m2 CLR
10:21 28.7 °F 18.5 °F 1014.1 in NE 9.7 mph 9.7 mph 54 % 0.0 in 520.0 W/m2 CLR
10:26 28.8 °F 18.3 °F 1014.1 in NNE 13.0 mph 13.0 mph 53 % 0.0 in 534.0 W/m2 CLR
10:31 29.0 °F 18.4 °F 1014.1 in NE 9.3 mph 9.3 mph 53 % 0.0 in 545.0 W/m2 CLR
10:36 29.3 °F 18.4 °F 1014.1 in ENE 7.4 mph   52 % 0.0 in 561.0 W/m2 CLR
10:41 29.6 °F 18.4 °F 1014.1 in North 13.0 mph 13.0 mph 51 % 0.0 in 573.0 W/m2 CLR
10:46 29.5 °F 18.3 °F 1014.1 in Calm     51 % 0.0 in 587.0 W/m2 CLR
10:51 29.7 °F 18.4 °F 1014.1 in Calm     51 % 0.0 in 601.0 W/m2 CLR
10:52 29.7 °F 18.4 °F 1014.1 in Calm     51 % 0.0 in 601.0 W/m2 CLR
10:57 30.1 °F 18.6 °F 1014.1 in Calm     50 % 0.0 in 615.0 W/m2 CLR
11:02 30.4 °F 18.5 °F 1014.1 in NE 7.4 mph 7.4 mph 49 % 0.0 in 628.0 W/m2 CLR
11:07 30.7 °F 18.4 °F 1014.1 in North 9.3 mph 9.3 mph 48 % 0.0 in 640.0 W/m2 CLR
11:12 30.5 °F 18.2 °F 1014.1 in North 9.3 mph 9.3 mph 48 % 0.0 in 652.0 W/m2 CLR
11:17 30.4 °F 18.2 °F 1014.1 in Calm     48 % 0.0 in 659.0 W/m2 CLR
11:22 30.8 °F 18.5 °F 1014.1 in North 3.2 mph 3.2 mph 48 % 0.0 in 679.0 W/m2 CLR
11:27 30.8 °F 18.5 °F 1014.1 in ENE 1.9 mph   48 % 0.0 in 686.0 W/m2 CLR
11:32 30.9 °F 18.3 °F 1014.1 in Calm     47 % 0.0 in 700.0 W/m2 CLR
11:37 31.0 °F 18.4 °F 1013.8 in Calm     47 % 0.0 in 714.0 W/m2 CLR
11:42 31.2 °F 18.2 °F 1013.8 in Calm     46 % 0.0 in 721.0 W/m2 CLR
11:47 31.1 °F 18.1 °F 1013.8 in Calm     46 % 0.0 in 729.0 W/m2 CLR
11:52 31.1 °F 18.4 °F 1013.8 in Calm     47 % 0.0 in 738.0 W/m2 CLR
11:57 31.4 °F 18.8 °F 1013.8 in ENE 6.4 mph 6.4 mph 47 % 0.0 in 749.0 W/m2 CLR
12:02 31.7 °F 18.7 °F 1013.8 in Calm   1.3 mph 46 % 0.0 in 756.0 W/m2 CLR
12:07 31.7 °F 18.7 °F 1013.8 in ENE 3.7 mph 3.7 mph 46 % 0.0 in 770.0 W/m2 CLR
12:12 31.9 °F 18.5 °F 1013.8 in Calm     45 % 0.0 in 775.0 W/m2 CLR
12:17 32.2 °F 18.4 °F 1013.8 in Calm     44 % 0.0 in 780.0 W/m2 CLR
12:22 32.3 °F 18.5 °F 1013.8 in Calm     44 % 0.0 in 738.0 W/m2 CLR
12:27 32.7 °F 18.4 °F 1013.8 in Calm     43 % 0.0 in 796.0 W/m2 CLR
12:32 33.1 °F 18.8 °F 1013.4 in Calm     43 % 0.0 in 812.0 W/m2 CLR
12:37 33.3 °F 18.2 °F 1013.4 in NE 5.6 mph 5.6 mph 41 % 0.0 in 816.0 W/m2 CLR
12:42 33.4 °F 18.4 °F 1013.4 in NE 7.4 mph 7.4 mph 41 % 0.0 in 823.0 W/m2 CLR
12:47 33.4 °F 18.3 °F 1013.4 in Calm     41 % 0.0 in 831.0 W/m2 CLR
12:52 33.1 °F 18.1 °F 1013.4 in Calm     41 % 0.0 in 835.0 W/m2 CLR
12:57 33.1 °F 18.1 °F 1013.4 in Calm     41 % 0.0 in 840.0 W/m2 CLR
13:02 33.4 °F 18.3 °F 1013.1 in NE 8.0 mph 8.0 mph 41 % 0.0 in 844.0 W/m2 CLR
13:07 33.6 °F 18.2 °F 1013.1 in Calm     40 % 0.0 in 849.0 W/m2 CLR
13:12 33.8 °F 17.9 °F 1013.1 in Calm     39 % 0.0 in 854.0 W/m2 CLR
13:17 34.2 °F 18.2 °F 1013.1 in ENE 1.9 mph 1.9 mph 39 % 0.0 in 860.0 W/m2 CLR
13:22 34.6 °F 18.2 °F 1013.1 in Calm     38 % 0.0 in 863.0 W/m2 CLR
13:27 34.8 °F 17.9 °F 1013.1 in Calm     37 % 0.0 in 865.0 W/m2 CLR
13:32 34.8 °F 18.4 °F 1012.8 in North 6.4 mph 6.4 mph 38 % 0.0 in 868.0 W/m2 CLR
13:37 34.6 °F 18.6 °F 1012.8 in ENE 9.3 mph 9.3 mph 39 % 0.0 in 870.0 W/m2 CLR
13:42 34.7 °F 18.7 °F 1012.8 in NNE 14.8 mph 14.8 mph 39 % 0.0 in 867.0 W/m2 CLR
13:47 34.8 °F 18.8 °F 1012.8 in ENE 9.3 mph 9.3 mph 39 % 0.0 in 870.0 W/m2 CLR
13:52 35.0 °F 18.6 °F 1012.8 in Calm     38 % 0.0 in 874.0 W/m2 CLR
13:57 35.0 °F 18.6 °F 1012.8 in NW 14.8 mph 14.8 mph 38 % 0.0 in 877.0 W/m2 CLR
14:02 34.9 °F 18.9 °F 1012.4 in NE 17.7 mph 17.7 mph 39 % 0.0 in 874.0 W/m2 CLR
14:07 35.1 °F 18.7 °F 1012.4 in NE 16.7 mph 16.7 mph 38 % 0.0 in 881.0 W/m2 CLR
14:12 34.9 °F 18.5 °F 1012.4 in NNW 18.5 mph 18.5 mph 38 % 0.0 in 877.0 W/m2 CLR
14:17 34.8 °F 18.8 °F 1012.4 in North 16.7 mph 16.7 mph 39 % 0.0 in 870.0 W/m2 CLR
14:22 34.9 °F 18.5 °F 1012.4 in NE 18.5 mph 18.5 mph 38 % 0.0 in 868.0 W/m2 CLR
14:27 34.9 °F 18.9 °F 1012.4 in NNE 11.1 mph 11.1 mph 39 % 0.0 in 875.0 W/m2 CLR
14:32 35.2 °F 18.8 °F 1012.4 in North 18.5 mph 18.5 mph 38 % 0.0 in 882.0 W/m2 CLR
14:37 35.1 °F 18.6 °F 1012.1 in NNE 13.0 mph 13.0 mph 38 % 0.0 in 865.0 W/m2 CLR
14:42 35.3 °F 18.8 °F 1012.1 in NNE 16.7 mph 16.7 mph 38 % 0.0 in 863.0 W/m2 CLR
14:47 35.4 °F 18.6 °F 1012.1 in East 11.1 mph 11.1 mph 37 % 0.0 in 877.0 W/m2 CLR
14:52 35.5 °F 19.0 °F 1011.7 in NNW 13.0 mph 13.0 mph 38 % 0.0 in 907.0 W/m2 CLR
14:57 35.6 °F 18.6 °F 1011.7 in NNE 7.4 mph 7.4 mph 37 % 0.0 in 921.0 W/m2 CLR
15:02 35.4 °F 18.5 °F 1011.7 in North 9.7 mph 9.7 mph 37 % 0.0 in 253.0 W/m2 CLR
15:07 35.6 °F 18.6 °F 1011.7 in NNW 13.0 mph 13.0 mph 37 % 0.0 in 768.0 W/m2 CLR
15:12 35.7 °F 18.8 °F 1011.7 in North 11.1 mph   37 % 0.0 in 840.0 W/m2 CLR
15:17 36.2 °F 18.7 °F 1011.7 in NE 14.8 mph 14.8 mph 36 % 0.0 in 842.0 W/m2 CLR
15:22 36.3 °F 18.8 °F 1011.7 in NE 5.6 mph 5.6 mph 36 % 0.0 in 830.0 W/m2 CLR
15:27 36.6 °F 19.1 °F 1011.7 in NW 8.0 mph 8.0 mph 36 % 0.0 in 828.0 W/m2 CLR
15:32 36.6 °F 19.1 °F 1011.4 in WNW 11.1 mph 11.1 mph 36 % 0.0 in 826.0 W/m2 CLR
15:37 36.7 °F 18.7 °F 1011.4 in NNW 14.8 mph 14.8 mph 35 % 0.0 in 828.0 W/m2 CLR
15:42 36.7 °F 18.8 °F 1011.4 in North 9.7 mph 9.7 mph 35 % 0.0 in 826.0 W/m2 CLR
15:47 36.8 °F 18.8 °F 1011.4 in NNE 14.8 mph 14.8 mph 35 % 0.0 in 847.0 W/m2 CLR
15:52 36.4 °F 18.5 °F 1011.4 in NW 9.3 mph 9.3 mph 35 % 0.0 in 380.0 W/m2 CLR
15:57 36.4 °F 18.9 °F 1011.4 in WNW 5.6 mph 5.6 mph 36 % 0.0 in 842.0 W/m2 CLR
16:02 36.8 °F 19.3 °F 1011.4 in WNW 9.3 mph 9.3 mph 36 % 0.0 in 837.0 W/m2 CLR
16:07 36.8 °F 18.8 °F 1011.4 in NNE 24.1 mph 24.1 mph 35 % 0.0 in 761.0 W/m2 CLR
16:12 36.5 °F 19.0 °F 1011.4 in NW 11.1 mph 11.1 mph 36 % 0.0 in 817.0 W/m2 CLR
16:17 36.7 °F 18.8 °F 1011.1 in NW 14.8 mph 14.8 mph 35 % 0.0 in 772.0 W/m2 CLR
16:22 36.9 °F 18.9 °F 1011.1 in NNE 18.5 mph 18.5 mph 35 % 0.0 in 694.0 W/m2 CLR
16:27 36.7 °F 18.7 °F 1011.1 in WNW 9.7 mph 9.7 mph 35 % 0.0 in 789.0 W/m2 CLR
16:32 36.8 °F 18.8 °F 1011.1 in NNW 5.6 mph 5.6 mph 35 % 0.0 in 652.0 W/m2 CLR
16:37 36.9 °F 18.9 °F 1011.1 in Calm     35 % 0.0 in 717.0 W/m2 CLR
16:42 37.0 °F 19.0 °F 1011.1 in NNE 11.1 mph 11.1 mph 35 % 0.0 in 640.0 W/m2 CLR
16:47 37.0 °F 19.0 °F 1011.1 in NW 11.1 mph 11.1 mph 35 % 0.0 in 689.0 W/m2 CLR
16:57 37.4 °F 18.9 °F 1011.1 in North 9.3 mph 9.3 mph 34 % 0.0 in 533.0 W/m2 CLR
17:02 37.4 °F 18.9 °F 1011.1 in West 1.9 mph 1.9 mph 34 % 0.0 in 214.0 W/m2 CLR
17:07 37.2 °F 18.7 °F 1011.1 in NNE 5.6 mph   34 % 0.0 in 241.0 W/m2 CLR
17:12 36.8 °F 18.8 °F 1011.1 in NNW 7.4 mph 7.4 mph 35 % 0.0 in 218.0 W/m2 CLR
17:17 36.5 °F 18.6 °F 1011.1 in WNW 11.1 mph 11.1 mph 35 % 0.0 in 223.0 W/m2 CLR
17:22 36.2 °F 18.3 °F 1011.1 in WNW 16.7 mph 16.7 mph 35 % 0.0 in 218.0 W/m2 CLR
17:27 36.0 °F 18.1 °F 1011.1 in WNW 14.5 mph 14.5 mph 35 % 0.0 in 207.0 W/m2 CLR
17:32 35.7 °F 18.3 °F 1011.1 in West 7.4 mph 7.4 mph 36 % 0.0 in 199.0 W/m2 CLR
17:37 35.7 °F 18.3 °F 1011.1 in WNW 16.7 mph 16.7 mph 36 % 0.0 in 192.0 W/m2 CLR
17:42 35.6 °F 18.2 °F 1011.1 in WSW 5.6 mph 5.6 mph 36 % 0.0 in 183.0 W/m2 CLR
17:47 35.4 °F 18.1 °F 1011.1 in West 14.8 mph 14.8 mph 36 % 0.0 in 183.0 W/m2 CLR
17:52 35.3 °F 18.0 °F 1011.1 in West 7.4 mph 7.4 mph 36 % 0.0 in 181.0 W/m2 CLR
17:57 35.2 °F 18.3 °F 1011.1 in West 9.7 mph 9.7 mph 37 % 0.0 in 178.0 W/m2 CLR
18:02 35.3 °F 17.9 °F 1010.7 in WSW 7.4 mph 7.4 mph 36 % 0.0 in 178.0 W/m2 CLR
18:07 35.2 °F 17.9 °F 1010.7 in WSW 5.6 mph 5.6 mph 36 % 0.0 in 188.0 W/m2 CLR
18:12 35.1 °F 18.2 °F 1010.7 in Calm     37 % 0.0 in 193.0 W/m2 CLR
18:17 35.1 °F 18.2 °F 1010.7 in Calm     37 % 0.0 in 216.0 W/m2 CLR
18:22 35.3 °F 18.4 °F 1010.7 in West 7.4 mph 7.4 mph 37 % 0.0 in 283.0 W/m2 CLR
18:27 35.6 °F 18.2 °F 1010.7 in Calm     36 % 0.0 in 506.0 W/m2 CLR
18:32 36.1 °F 18.6 °F 1010.4 in Calm     36 % 0.0 in 554.0 W/m2 CLR
18:37 36.1 °F 18.2 °F 1010.7 in SSW 1.9 mph 1.9 mph 35 % 0.0 in 262.0 W/m2 CLR
18:42 36.2 °F 18.3 °F 1010.7 in West 7.4 mph 7.4 mph 35 % 0.0 in 538.0 W/m2 CLR
18:47 36.4 °F 18.5 °F 1010.4 in Calm     35 % 0.0 in 466.0 W/m2 CLR
18:48 36.5 °F 18.6 °F 1010.4 in Calm     35 % 0.0 in 455.0 W/m2 CLR
18:53 36.8 °F 18.3 °F 1010.4 in Calm     34 % 0.0 in 352.0 W/m2 CLR
18:58 36.7 °F 18.3 °F 1010.4 in Calm     34 % 0.0 in 165.0 W/m2 CLR
19:03 36.4 °F 18.1 °F 1010.4 in Calm     34 % 0.0 in 121.0 W/m2 CLR
19:08 36.4 °F 19.4 °F 1010.4 in Calm     37 % 0.0 in 332.0 W/m2 CLR
19:13 36.3 °F 18.4 °F 1010.4 in WSW 3.7 mph 3.7 mph 35 % 0.0 in 207.0 W/m2 CLR
19:18 36.1 °F 17.8 °F 1010.7 in Calm     34 % 0.0 in 162.0 W/m2 CLR
19:23 36.0 °F 17.7 °F 1010.7 in Calm     34 % 0.0 in 104.0 W/m2 CLR
19:28 35.7 °F 19.6 °F 1010.7 in Calm     39 % 0.0 in 86.0 W/m2 CLR
19:33 35.4 °F 17.7 °F 1010.7 in West 9.7 mph 9.7 mph 35 % 0.0 in 77.0 W/m2 CLR
19:38 35.3 °F 18.0 °F 1010.7 in West 5.6 mph 5.6 mph 36 % 0.0 in 77.0 W/m2 FEW
19:43 35.2 °F 17.9 °F 1010.7 in WNW 5.6 mph 5.6 mph 36 % 0.0 in 74.0 W/m2 FEW
19:48 35.1 °F 17.8 °F 1010.7 in WSW 7.4 mph 7.4 mph 36 % 0.0 in 72.0 W/m2 FEW
19:53 35.0 °F 17.7 °F 1010.7 in SW 5.6 mph 5.6 mph 36 % 0.0 in 69.0 W/m2 FEW
19:58 34.9 °F 15.7 °F 1011.1 in SW 16.1 mph 16.1 mph 32 % 0.0 in 91.0 W/m2 FEW
20:03 34.9 °F 15.3 °F 1011.1 in SW 14.8 mph 14.8 mph 31 % 0.0 in 146.0 W/m2 CLR
20:08 35.0 °F 16.3 °F 1011.1 in SW 16.7 mph 16.7 mph 33 % 0.0 in 135.0 W/m2 CLR
20:13 35.0 °F 15.8 °F 1011.1 in SW 13.0 mph 13.0 mph 32 % 0.0 in 111.0 W/m2 CLR
20:18 34.8 °F 15.7 °F 1011.1 in West 16.7 mph 16.7 mph 32 % 0.0 in 111.0 W/m2 CLR
20:23 34.3 °F 16.7 °F 1011.1 in West 18.5 mph 18.5 mph 35 % 0.0 in 95.0 W/m2 CLR
20:28 34.2 °F 16.5 °F 1011.1 in West 11.1 mph 11.1 mph 35 % 0.0 in 84.0 W/m2 CLR
20:33 34.1 °F 16.9 °F 1010.7 in WSW 7.4 mph 7.4 mph 36 % 0.0 in 74.0 W/m2 FEW
20:38 33.9 °F 16.8 °F 1010.7 in West 11.1 mph 11.1 mph 36 % 0.0 in 60.0 W/m2 SCT
20:43 33.9 °F 16.7 °F 1010.7 in West 8.0 mph 8.0 mph 36 % 0.0 in 51.0 W/m2 SCT
20:48 33.8 °F 17.1 °F 1010.7 in Calm     37 % 0.0 in 42.0 W/m2 BKN
20:53 33.7 °F 17.0 °F 1011.1 in Calm     37 % 0.0 in 40.0 W/m2 BKN
20:58 33.6 °F 17.3 °F 1011.1 in West 3.7 mph 3.7 mph 38 % 0.0 in 37.0 W/m2 BKN
21:03 33.0 °F 18.0 °F 1011.7 in NW 25.9 mph 25.9 mph 41 % 0.0 in 32.0 W/m2 BKN
21:08 32.0 °F 17.8 °F 1011.7 in NW 25.9 mph 25.9 mph 43 % 0.0 in 26.0 W/m2 BKN
21:13 31.3 °F 17.6 °F 1011.7 in NNW 31.5 mph 31.5 mph 44 % 0.0 in 19.0 W/m2 BKN
21:18 30.8 °F 17.5 °F 1011.7 in NW 31.5 mph 31.5 mph 45 % 0.0 in 12.0 W/m2 OVC
21:23 30.4 °F 17.5 °F 1011.7 in NW 27.8 mph 27.8 mph 46 % 0.0 in 0.0 W/m2 CLR
21:28 30.2 °F 17.3 °F 1012.1 in NW 19.3 mph 19.3 mph 46 % 0.0 in 0.0 W/m2 CLR
21:33 29.8 °F 16.9 °F 1012.4 in NW 27.8 mph 27.8 mph 46 % 0.0 in 0.0 W/m2 CLR
21:38 29.5 °F 17.0 °F 1012.4 in NW 29.6 mph 29.6 mph 47 % 0.0 in 0.0 W/m2 CLR
21:43 29.2 °F 17.1 °F 1012.4 in NW 31.5 mph 31.5 mph 48 % 0.0 in 0.0 W/m2 CLR
21:48 28.8 °F 16.7 °F 1012.8 in West 29.6 mph 29.6 mph 48 % 0.0 in 0.0 W/m2 CLR
21:53 28.5 °F 16.4 °F 1012.8 in NW 24.1 mph 24.1 mph 48 % 0.0 in 0.0 W/m2 CLR
21:58 28.2 °F 16.5 °F 1013.1 in WNW 18.5 mph 18.5 mph 49 % 0.0 in 0.0 W/m2 CLR
22:03 27.9 °F 16.2 °F 1013.1 in NW 29.0 mph 29.0 mph 49 % 0.0 in 0.0 W/m2 CLR
22:08 27.6 °F 16.2 °F 1013.4 in WNW 18.5 mph 18.5 mph 50 % 0.0 in 0.0 W/m2 CLR
22:12 27.3 °F 16.0 °F 1013.4 in NW 22.2 mph 22.2 mph 50 % 0.0 in 0.0 W/m2 CLR
22:27 26.8 °F 15.8 °F 1013.8 in West 31.5 mph 31.5 mph 51 % 0.0 in 0.0 W/m2 CLR
22:32 26.7 °F 15.7 °F 1013.8 in WNW 22.2 mph 22.2 mph 51 % 0.0 in 0.0 W/m2 CLR
22:37 26.7 °F 15.7 °F 1013.8 in WNW 9.3 mph 9.3 mph 51 % 0.0 in 0.0 W/m2 CLR
22:42 26.6 °F 15.9 °F 1014.1 in NW 18.5 mph 18.5 mph 52 % 0.0 in 0.0 W/m2 CLR
22:47 26.4 °F 15.7 °F 1014.1 in West 14.8 mph 14.8 mph 52 % 0.0 in 0.0 W/m2 CLR
22:52 26.2 °F 15.6 °F 1014.1 in WNW 16.7 mph 16.7 mph 52 % 0.0 in 0.0 W/m2 CLR
22:57 26.0 °F 15.4 °F 1014.1 in WNW 18.5 mph 18.5 mph 52 % 0.0 in 0.0 W/m2 CLR
23:02 25.8 °F 15.5 °F 1014.1 in WNW 17.7 mph 17.7 mph 53 % 0.0 in 0.0 W/m2 CLR
23:07 25.6 °F 15.3 °F 1014.4 in NW 18.5 mph 18.5 mph 53 % 0.0 in 0.0 W/m2 CLR
23:12 25.4 °F 15.4 °F 1014.8 in WNW 19.3 mph 19.3 mph 54 % 0.0 in 0.0 W/m2 CLR
23:13 25.4 °F 15.4 °F 1014.4 in WNW 18.5 mph 18.5 mph 54 % 0.0 in 0.0 W/m2 CLR
23:18 25.2 °F 15.2 °F 1014.8 in WNW 25.9 mph 25.9 mph 54 % 0.0 in 0.0 W/m2 CLR
23:23 24.9 °F 15.2 °F 1014.8 in WNW 17.7 mph 17.7 mph 55 % 0.0 in 0.0 W/m2 CLR
23:28 24.8 °F 15.2 °F 1014.8 in West 24.1 mph 24.1 mph 55 % 0.0 in 0.0 W/m2 CLR
23:33 24.8 °F 15.1 °F 1014.8 in WNW 16.7 mph 16.7 mph 55 % 0.0 in 0.0 W/m2 CLR
23:38 24.7 °F 15.3 °F 1015.1 in WNW 18.5 mph 18.5 mph 56 % 0.0 in 0.0 W/m2 CLR
23:43 24.6 °F 15.2 °F 1015.1 in Calm     56 % 0.0 in 0.0 W/m2 CLR
23:48 24.5 °F 15.2 °F 1015.1 in West 7.4 mph 7.4 mph 56 % 0.0 in 0.0 W/m2 CLR
23:53 24.4 °F 15.1 °F 1015.1 in Calm     56 % 0.0 in 0.0 W/m2 CLR
23:54 24.4 °F 15.4 °F 1015.1 in Calm     57 % 0.0 in 0.0 W/m2 CLR
23:59 24.3 °F 15.3 °F 1015.1 in WSW 7.4 mph 7.4 mph 57 % 0.0 in 0.0 W/m2 CLR
Lo Temps de Massalio
Compliments of Weather Underground - 1.25 mb